User: anonymous   Login
Location: Ostrava
(49.8330°N, 18.2830°E)
Time: 02:33:38
(UTC+02:00)
Language:

Cosmos 1400 Rocket - Orbit

View from above orbital plane
View from above orbital plane
View from above satellite
View from above satellite

Ground track
Ground track

The orbit data is extracted from the following two-line orbital elements,

1 13403U 82079B   17234.86964530 -.00000078  00000-0 -68254-5 0  9992
2 13403  81.1695 192.9628 0035296  59.8746 300.5967 15.06618921906761
Epoch (UTC): 22 August 2017 20:52:17
Eccentricity: 0.0035296
inclination: 81.1695°
perigee height: 522 km
apogee height: 571 km
right ascension of ascending node: 192.9628°
argument of perigee: 59.8746°
revolutions per day: 15.06618921
mean anomaly at epoch: 300.5967°
orbit number at epoch: 90676

The dashed part of the orbit path shows where the satellite is in the earth's shadow,  

DLR